This demonstration page uses our WeatherBlox Daily Observations layout. Learn more.

Left ArrowRight Arrow

40.97296, -117.73568

Hourly Observations for August 7, 2022

Temp ( °F °C ) Dew Point ( °F °C ) Humidity (%) Winds ( mph kmh ) Pressure ( in mb ) Visibility ( mi km ) Precip ( " mm )
12:56 am 00:56 Clear 67 19.4 53 11.7 61 61 E 8 13 29.99 1016 10 16 0.00 0.00
1:56 am 01:56 Clear 67 19.4 52 11.1 59 59 ENE 7 11 29.99 1016 10 16 0.00 0.00
2:56 am 02:56 Clear 65 18.3 53 11.7 66 66 ENE 13 20 30.00 1016 10 16 0.00 0.00
3:56 am 03:56 Clear 65 18.3 54 12.2 68 68 ENE 13 20 30.01 1016 10 16 0.00 0.00
4:56 am 04:56 Clear 64 17.8 53 11.7 68 68 ENE 10 17 30.01 1016 10 16 0.00 0.00
5:56 am 05:56 Sunny 64 17.8 53 11.7 68 68 ENE 13 20 30.03 1017 10 16 0.00 0.00
6:56 am 06:56 Sunny 65 18.3 52 11.1 63 63 ENE 14 22 30.06 1018 10 16 0.00 0.00
7:56 am 07:56 Sunny 69 20.6 54 12.2 59 59 ENE 13 20 30.07 1018 10 16 0.00 0.00
8:56 am 08:56 Sunny 74 23.3 53 11.7 48 48 ENE 13 20 30.06 1018 10 16 0.00 0.00
9:56 am 09:56 Sunny 80 26.7 52 11.1 38 38 ENE 10 17 30.04 1017 10 16 0.00 0.00
10:56 am 10:56 Sunny 86 30 52 11.1 31 31 NE 13 20 30.03 1017 10 16 0.00 0.00
11:56 am 11:56 Sunny 90 32.2 51 10.6 26 26 NNE 10 17 30.01 1016 10 16 0.00 0.00
12:56 pm 12:56 Sunny 92 33.3 49 9.4 23 23 NE 7 11 30.00 1016 10 16 0.00 0.00
1:56 pm 13:56 Sunny 94 34.4 41 5 16 16 VRB 6 9 29.98 1015 10 16 0.00 0.00
2:56 pm 14:56 Sunny 93 33.9 41 5 16 16 NE 5 7 29.96 1015 10 16 0.00 0.00
3:56 pm 15:56 Sunny 95 35 44 6.7 17 17 VRB 5 7 29.94 1014 10 16 0.00 0.00
4:56 pm 16:56 Sunny 92 33.3 43 6.1 18 18 NNE 8 13 29.94 1014 10 16 0.00 0.00
5:56 pm 17:56 Sunny 92 33.3 43 6.1 18 18 E 9 15 29.93 1014 10 16 0.00 0.00
6:56 pm 18:56 Sunny 93 33.9 41 5 16 16 E 9 15 29.92 1013 10 16 0.00 0.00
7:56 pm 19:56 Sunny 88 31.1 38 3.3 17 17 NE 7 11 29.92 1013 10 16 0.00 0.00
8:56 pm 20:56 Clear 84 28.9 39 3.9 20 20 ENE 8 13 29.93 1013 10 16 0.00 0.00
9:56 pm 21:56 Clear 79 26.1 39 3.9 24 24 Calm 29.93 1014 10 16 0.00 0.00
10:56 pm 22:56 Clear 77 25 40 4.4 26 26 ENE 6 9 29.93 1014 10 16 0.00 0.00
11:56 pm 23:56 Clear 74 23.3 42 5.6 32 32 E 10 17 29.94 1014 10 16 0.00 0.00

Powered by AerisWeather